Total_Precipitation_Accumulation
0.13 0.38 0.88 1.19 1.68 2.04 1.85 1.34 1.04 0.75 0.60 0.62 0.52 0.51 0.65 0.98 1.48 2.64 2.98 2.44 1.82 1.69 1.88 2.04 2.08 2.03 1.95 1.96 2.30 2.42 2.30 2.27 2.29 2.44 2.53 2.62 2.63 2.52 2.45 2.45 2.56 2.78 2.86 2.89 3.12 3.33 3.42 3.31 3.36
0.24 0.59 1.03 1.45 1.87 2.09 1.74 1.13 0.81 0.67 0.56 0.56 0.50 0.52 0.76 0.91 1.02 1.77 2.27 2.02 1.46 1.36 1.53 1.71 1.88 1.81 1.73 1.76 1.89 2.10 2.14 2.10 2.24 2.51 2.68 2.77 2.69 2.55 2.48 2.42 2.56 2.84 3.03 3.13 3.20 3.19 3.26 3.12 3.03
0.40 0.64 1.11 1.49 1.52 1.55 1.38 0.96 0.69 0.57 0.58 0.72 0.69 0.61 0.97 1.16 1.13 1.69 2.02 1.49 1.24 1.26 1.46 1.66 1.67 1.54 1.46 1.44 1.54 1.81 2.01 2.12 2.31 2.45 2.62 2.71 2.62 2.56 2.47 2.45 2.66 2.94 3.33 3.42 3.26 3.06 2.86 2.78 2.71
0.45 0.73 0.98 1.14 0.98 0.82 0.82 0.72 0.58 0.52 0.55 0.65 0.74 0.86 1.21 1.18 1.12 1.43 1.58 1.25 1.16 1.16 1.17 1.26 1.40 1.32 1.32 1.36 1.43 1.59 1.77 2.02 2.35 2.58 2.70 2.80 2.78 2.73 2.65 2.65 2.81 3.10 3.45 3.45 3.24 2.98 2.65 2.45 2.26
0.50 0.82 0.96 0.91 0.81 0.71 0.60 0.56 0.50 0.57 0.63 0.68 0.72 1.07 1.47 1.37 1.13 1.17 1.22 1.06 0.91 0.90 0.88 0.95 1.11 1.13 1.19 1.24 1.39 1.54 1.79 1.97 2.17 2.56 2.90 2.98 2.90 2.95 2.88 2.84 3.03 3.19 3.30 3.21 3.05 2.72 2.48 2.30 2.20
0.58 0.65 0.71 0.77 0.74 0.64 0.53 0.43 0.40 0.52 0.67 0.79 0.85 1.11 1.73 1.67 1.28 1.12 0.92 0.85 0.73 0.71 0.82 0.96 1.08 1.11 1.12 1.13 1.32 1.56 1.80 2.02 2.22 2.44 2.66 2.78 2.80 2.85 2.94 2.99 3.16 3.15 3.09 2.90 2.71 2.44 2.34 2.24 2.20
0.59 0.50 0.45 0.50 0.56 0.53 0.47 0.41 0.38 0.46 0.63 0.80 0.84 1.27 1.89 2.00 1.49 1.11 0.94 0.91 0.93 0.89 1.00 1.15 1.21 1.21 1.30 1.40 1.54 1.74 1.88 2.18 2.33 2.41 2.44 2.56 2.64 2.66 2.74 2.89 3.06 3.09 2.93 2.62 2.55 2.44 2.36 2.23 2.14
0.40 0.37 0.32 0.33 0.38 0.51 0.43 0.34 0.36 0.48 0.55 0.63 0.77 1.24 1.77 1.76 1.48 1.31 1.40 1.38 1.45 1.29 1.21 1.26 1.39 1.48 1.43 1.57 1.89 1.99 2.01 2.11 2.24 2.27 2.30 2.44 2.59 2.68 2.83 2.88 3.12 3.24 3.02 2.66 2.73 2.63 2.41 2.26 2.27
0.24 0.43 0.38 0.27 0.28 0.33 0.29 0.34 0.35 0.35 0.41 0.57 0.77 1.05 1.35 1.32 1.33 1.58 1.91 1.82 1.88 1.70 1.42 1.31 1.21 1.36 1.50 1.57 1.72 2.01 2.06 2.13 2.30 2.48 2.56 2.73 2.89 2.86 3.19 3.24 3.59 3.59 3.28 3.05 3.07 2.86 2.68 2.45 2.50
0.18 0.33 0.25 0.15 0.13 0.16 0.22 0.30 0.35 0.40 0.63 0.95 1.14 1.27 1.48 1.72 1.70 1.80 1.88 1.82 1.85 1.83 1.65 1.50 1.44 1.39 1.49 1.51 1.78 2.22 2.12 2.27 2.51 2.88 3.07 3.27 3.37 3.37 3.01 3.62 4.16 4.11 3.91 3.72 3.67 3.42 3.03 2.63 2.55
0.12 0.13 0.11 0.12 0.10 0.12 0.19 0.24 0.30 0.47 0.91 1.28 1.54 1.64 1.74 2.01 2.19 2.17 2.22 2.23 2.14 2.09 1.87 1.67 1.64 1.70 1.67 1.81 1.83 2.15 2.44 2.70 2.83 2.94 3.12 3.35 3.26 3.14 3.16 3.70 4.08 4.11 4.00 4.05 4.19 3.92 3.35 3.20 3.26
0.05 0.04 0.06 0.09 0.08 0.11 0.18 0.26 0.37 0.64 1.12 1.28 1.50 1.67 1.71 2.13 2.25 2.24 2.67 2.80 2.40 2.14 2.14 2.04 1.98 1.99 2.01 1.86 2.07 2.14 2.26 2.50 2.81 3.05 3.02 3.18 3.56 3.59 3.60 3.84 3.79 3.90 3.98 4.46 4.32 4.35 4.01 3.62 3.33
0.04 0.04 0.05 0.07 0.08 0.09 0.16 0.25 0.37 0.61 0.86 0.99 1.19 1.38 1.41 1.93 2.28 2.54 3.03 2.98 2.69 2.53 2.49 2.33 2.28 2.35 2.33 2.35 2.43 2.24 2.42 2.59 2.75 2.96 3.09 3.11 3.44 3.67 3.81 3.93 3.94 3.53 3.50 3.93 4.33 4.16 4.11 4.04 3.82
0.04 0.06 0.08 0.09 0.10 0.11 0.13 0.24 0.44 0.72 0.81 1.03 1.04 1.23 1.47 1.87 2.19 2.61 2.93 3.14 2.99 2.78 2.67 2.52 2.50 2.62 2.68 2.71 2.88 2.85 2.69 2.84 2.74 2.98 3.03 3.09 3.25 3.54 3.86 3.98 4.04 3.65 3.45 3.71 4.03 3.93 4.14 3.99 3.96
0.05 0.10 0.15 0.14 0.13 0.15 0.17 0.42 0.73 0.85 0.90 1.08 1.23 1.35 1.59 1.96 2.46 2.72 2.95 3.23 3.23 3.17 3.03 2.84 2.78 2.94 3.18 3.35 3.37 3.29 3.09 2.84 2.83 2.97 3.00 3.10 3.15 3.52 3.61 3.68 3.79 3.75 3.53 3.69 3.88 3.91 4.07 3.87 3.67
0.09 0.13 0.21 0.22 0.18 0.18 0.31 0.81 0.93 0.82 0.99 1.23 1.32 1.55 1.85 2.27 2.69 3.14 3.28 3.18 3.19 3.32 3.29 3.05 2.84 3.27 3.67 3.81 3.85 3.65 3.38 3.00 2.97 3.02 3.08 3.19 3.30 3.50 3.73 3.53 3.57 3.92 3.78 3.91 4.29 4.22 4.30 4.41 4.22
0.13 0.21 0.21 0.27 0.23 0.23 0.38 0.91 0.87 0.71 0.89 1.14 1.34 1.54 1.97 2.51 2.84 2.97 3.02 3.21 3.34 3.40 3.38 3.35 3.46 3.60 3.78 3.90 4.05 3.82 3.60 3.40 3.16 3.08 3.07 3.21 3.34 3.48 3.90 3.97 4.07 4.02 3.99 4.07 3.75 4.31 4.61 4.68 4.50
0.15 0.17 0.23 0.27 0.25 0.30 0.40 0.67 0.74 0.77 1.03 1.16 1.44 1.64 1.80 2.21 2.65 2.74 2.85 3.28 3.36 3.52 3.65 3.62 3.74 3.94 4.25 4.45 4.66 4.31 3.94 3.67 3.41 3.24 3.30 3.34 3.56 3.67 4.03 4.12 4.14 3.95 4.08 4.14 4.18 4.61 4.58 4.28 4.27
0.06 0.13 0.25 0.26 0.27 0.36 0.46 0.64 0.83 0.92 1.17 1.50 1.73 1.69 1.66 1.97 2.44 2.81 3.12 3.20 3.52 3.72 3.89 3.92 4.17 4.62 4.98 4.82 4.52 4.38 4.16 3.93 3.70 3.44 3.36 3.41 3.39 3.56 3.96 3.87 4.25 4.12 3.98 3.94 3.98 4.35 4.43 4.11 4.26
0.04 0.10 0.21 0.27 0.26 0.40 0.56 0.79 0.93 1.13 1.40 1.54 1.46 1.44 1.59 1.98 2.48 2.86 3.13 3.23 3.47 3.75 4.18 4.32 4.53 4.93 5.09 4.94 4.82 4.70 4.59 4.19 4.09 3.95 3.80 3.40 3.20 3.31 3.35 3.76 3.63 3.74 3.95 3.90 4.06 4.35 4.21 3.88 4.33
0.06 0.12 0.20 0.25 0.34 0.50 0.63 1.09 1.24 1.39 1.55 1.56 1.47 1.66 1.68 1.74 2.16 2.45 2.56 2.71 2.88 3.03 3.29 3.59 4.11 4.65 4.87 4.94 4.84 4.80 4.85 4.42 4.17 4.05 3.89 3.49 3.20 3.09 3.21 3.41 3.55 3.69 3.62 3.79 3.98 4.01 4.09 4.06 4.22
0.08 0.11 0.12 0.17 0.32 0.61 0.72 1.41 1.58 1.74 1.91 1.78 1.65 1.59 1.58 1.78 2.10 2.11 1.94 2.07 2.32 2.31 2.62 3.05 3.54 3.92 4.17 4.26 4.27 4.33 4.32 4.25 4.16 4.02 3.66 3.44 3.19 3.07 3.14 3.27 3.39 3.50 3.36 3.60 3.40 3.47 3.97 4.15 3.99
0.07 0.10 0.13 0.18 0.32 0.59 0.67 1.07 1.62 1.97 2.17 1.79 1.63 1.49 1.55 1.75 1.78 1.74 1.76 1.86 2.00 2.16 2.47 2.78 3.14 3.45 3.62 3.72 3.81 3.94 3.84 3.88 3.77 3.62 3.45 3.25 3.08 2.94 2.74 2.89 3.14 3.26 3.18 3.18 3.25 3.51 3.60 3.55 3.60
0.07 0.13 0.22 0.31 0.52 0.94 0.84 0.95 1.50 1.87 1.72 1.50 1.42 1.22 1.33 1.51 1.58 1.63 1.73 1.84 1.96 2.26 2.60 2.88 3.13 3.37 3.44 3.23 3.14 3.19 3.26 3.33 3.28 3.14 2.99 2.78 2.73 2.66 2.52 2.58 2.87 3.00 3.00 3.00 3.02 3.17 3.26 3.32 3.37
0.11 0.24 0.73 1.17 1.49 1.39 0.87 0.98 1.58 1.47 1.15 1.07 1.16 1.15 1.15 1.17 1.30 1.41 1.61 1.80 1.98 2.09 2.17 2.60 3.03 3.22 3.12 2.87 2.69 2.64 2.80 2.92 2.86 2.74 2.68 2.60 2.47 2.43 2.45 2.49 2.65 2.70 2.69 2.65 2.75 2.87 2.93 3.14 3.28
0.16 0.28 0.79 1.11 1.21 1.18 0.97 1.37 1.88 1.46 1.02 0.87 0.97 0.98 0.89 0.82 0.78 0.86 1.05 1.17 1.31 1.35 1.37 1.54 1.82 2.07 2.15 2.05 2.09 2.16 2.22 2.30 2.31 2.51 2.36 2.36 2.29 2.19 2.26 2.26 2.28 2.33 2.35 2.33 2.70 2.76 2.86 3.07 3.15
0.26 0.31 0.34 0.57 0.80 1.20 1.24 1.45 1.58 1.29 0.99 0.96 1.04 0.95 0.78 0.73 0.68 0.75 0.87 0.93 1.00 1.02 1.06 1.21 1.45 1.70 1.74 1.75 1.82 1.87 1.90 1.97 2.01 2.06 2.01 1.99 2.07 2.03 2.05 2.06 2.21 2.23 2.31 2.48 2.70 2.73 2.82 3.07 3.07
0.22 0.31 0.47 0.74 1.01 1.17 1.28 1.67 1.87 1.67 1.36 1.16 1.14 1.02 0.79 0.68 0.66 0.72 0.84 0.88 0.99 1.08 1.23 1.36 1.46 1.56 1.57 1.56 1.59 1.54 1.66 1.70 1.76 1.74 1.68 1.70 1.78 1.81 1.85 1.92 2.03 2.13 2.23 2.38 2.62 2.63 2.73 2.84 2.85
0.26 0.34 0.50 0.69 0.75 0.99 1.42 1.59 1.36 1.29 1.26 1.32 1.28 1.10 0.84 0.68 0.63 0.70 0.83 0.89 0.97 1.09 1.20 1.35 1.45 1.55 1.52 1.46 1.54 1.60 1.64 1.69 1.66 1.62 1.53 1.61 1.71 1.76 1.79 1.88 2.01 2.07 2.16 2.35 2.51 2.49 2.58 2.57 2.55
0.25 0.36 0.51 0.78 0.83 0.86 1.05 1.25 0.88 0.88 0.99 1.08 1.09 0.88 0.70 0.64 0.66 0.72 0.83 0.90 1.05 1.11 1.17 1.22 1.33 1.45 1.46 1.47 1.60 1.81 1.80 1.81 1.75 1.60 1.54 1.59 1.63 1.69 1.73 1.84 1.93 1.94 2.10 2.34 2.43 2.40 2.55 2.61 2.56